Regional Weather Roundup
Issued by NWS

Home | Current Version | Previous Version | Text Only | Print | Product List | Glossary Off
Versions: 1 2 3 4 5 6 7 8 9 10 11 12 13 14 15 16 17 18 19 20 21 22 23 24 25 26 27 28 29 30 31 32 33 34 35 36 37 38 39 40 41 42 43 44 45 46 47 48 49 50

000
ASUS43 KIND 220000
RWRIN

WEATHER ROUNDUP FOR INDIANA
NATIONAL WEATHER SERVICE INDIANAPOLIS IN
800 PM EDT MON AUG 21 2017

NOTE: "FAIR" INDICATES FEW OR NO CLOUDS BELOW 12,000 FEET WITH NO
SIGNIFICANT WEATHER AND/OR OBSTRUCTIONS TO VISIBILITY.

* - STATION DOES NOT REPORT WEATHER SUCH AS PRECIPITATION OR FOG.

+ - STATION NOT QUALITY CONTROLLED BY THE NATIONAL WEATHER SERVICE.
    USE DATA WITH CAUTION...ESPECIALLY DEWPOINT AND RELATIVE
    HUMIDITY OBSERVATIONS.

INZ001>003-010>013-019-020-220100-
NORTHWEST INDIANA

CITY           SKY/WX    TMP DP  RH WIND       PRES   REMARKS
GARY /AIRPORT/ MOCLDY    84  70  61 SW13      30.02R
MICHIGAN CITY+ CLOUDY    79  70  73 SW5       30.02S
MONTICELLO +   CLOUDY    81  71  71 S7        30.02F
6HR MIN TEMP:  80; 6HR MAX TEMP:  85;


$$

LMZ046-743>745-220100-
SOUTHERN LAKE MICHIGAN

STATION/POSITION TIME  TEMP    WIND        PRES    WAVE
                       AIR SEA DIR/SP/G            HT
                 (UTC) (F)     (DEG/KT/KT) (MB)    (FT)
BURNS HARBOR     2340   82     200/ 11/ 16 1016.6R
MICHIGAN CITY    2330   81     180/ 10/ 11   N/A
5NW MICH CITY    2350   79 75  200/  8/  8   N/A     1

$$

INZ004-005-014>016-021>024-220100-
NORTH CENTRAL INDIANA

CITY           SKY/WX    TMP DP  RH WIND       PRES   REMARKS
ELKHART        CLOUDY    81  70  69 SW9       30.02S
GOSHEN         CLOUDY    80  69  69 S5        30.02S
6HR MIN TEMP:  80; 6HR MAX TEMP:  86;

PERU/GRISSOM   CLOUDY    80  74  81 SW8       30.04R
6HR MIN TEMP:  80; 6HR MAX TEMP:  86;

SOUTH BEND     CLOUDY    81  72  74 SW8       30.02S
6HR MIN TEMP:  79; 6HR MAX TEMP:  85;


$$

INZ006>009-017-018-025>027-220100-
NORTHEAST INDIANA

CITY           SKY/WX    TMP DP  RH WIND       PRES   REMARKS
FORT WAYNE     MOCLDY    82  70  66 SW15      30.05R
6HR MIN TEMP:  82; 6HR MAX TEMP:  87;


$$

INZ028-029-035-036-043>045-051>053-220100-
WEST CENTRAL INDIANA

CITY           SKY/WX    TMP DP  RH WIND       PRES   REMARKS
LAFAYETTE      CLOUDY    79  73  82 S6        30.03S
6HR MIN TEMP:  78; 6HR MAX TEMP:  85;

TERRE HAUTE    CLOUDY    76  70  82 SE3       30.07R
6HR MIN TEMP:  73; 6HR MAX TEMP:  89; 6HR PCP:  0.20;


$$

INZ030>032-037>040-046>048-054>057-064-065-220100-
CENTRAL INDIANA

CITY           SKY/WX    TMP DP  RH WIND       PRES   REMARKS
COLUMBUS       CLEAR     81  68  65 CALM      30.07F
GREENWOOD *+   PTCLDY    76  71  84 S5        30.08F
INDIANAPOLIS   MOCLDY    77  71  82 S7        30.06S
6HR MIN TEMP:  76; 6HR MAX TEMP:  88; 6HR PCP:  0.01;

-EAGLE CREEK   PTCLDY    79  69  71 VRB3      30.06S
6HR MIN TEMP:  73; 6HR MAX TEMP:  88; 6HR PCP:  0.10;

KOKOMO +       MOCLDY    78  70  76 SW7       30.06S
6HR MIN TEMP:  78; 6HR MAX TEMP:  85;

MT COMFORT *+  PTCLDY    77  70  78 S7        30.08R
SHELBYVILLE    MOCLDY    78  71  79 SW3       30.07S
6HR MIN TEMP:  76; 6HR MAX TEMP:  88; 6HR PCP:  0.07;


$$

INZ033-034-041-042-049-050-058-059-220100-
EAST CENTRAL INDIANA

CITY           SKY/WX    TMP DP  RH WIND       PRES   REMARKS
MUNCIE         PTCLDY    81  70  69 SW7       30.06F
6HR MIN TEMP:  78; 6HR MAX TEMP:  87; 6HR PCP:  0.01;

RICHMOND +     CLOUDY    79  72  78 CALM      30.11S

$$

INZ060-061-067>069-081>083-085>088-220100-
SOUTHWEST INDIANA

CITY           SKY/WX    TMP DP  RH WIND       PRES   REMARKS
EVANSVILLE     CLOUDY    79  68  69 NE10      30.07F
6HR MIN TEMP:  79; 6HR MAX TEMP:  93;

HUNTINGBURG +  CLOUDY    77  72  84 MISG      30.09
6HR MIN TEMP:  77; 6HR MAX TEMP:  92;


$$

INZ062-063-066-070>080-084-089>092-220100-
SOUTH CENTRAL AND SOUTHEAST INDIANA

CITY           SKY/WX    TMP DP  RH WIND       PRES   REMARKS
BLOOMINGTON    CLOUDY    76  71  85 S5        30.09S
6HR MIN TEMP:  76; 6HR MAX TEMP:  89; 6HR PCP:  0.01;

MADISON *+     MOCLDY    81  75  83 CALM      30.11F
SEYMOUR +      CLOUDY    81  73  78 CALM      30.07

$$





USA.gov is the U.S. government's official web portal to all federal, state and local government web resources and services.